sat.trackr.live / text

‹ back to catalog

JAY-D2

NORAD 62665 · 2025-009BJ

PAYLOAD ACTIVE UNKNOWN

§ Identity

Operator
Country
CA
Launch date
2025-01-14
Launch site
AFWTR
Launch vehicle
Mass (kg)
RCS (m²)

External: N2YO · Heavens-Above · Gunter

§ Orbital elements

Epoch: 2026-09-22T20:09:08.804736Z

Period
94.56 min
Inclination
97.3824°
Eccentricity
0.0004208
Mean motion
15.22899805 rev/d
Perigee alt
494.2 km
Apogee alt
500.0 km
Semi-major
6,875.2 km
B*
1.0614e-4
RAAN
342.6723°
Arg perigee
10.6835°
Mean anomaly
349.4491°
Rev number
9,359

§ Raw data

JAY-D21 62665U 25009BJ  26265.83968524  .00002419  00000+0  10614-3 0  99972 62665  97.3824 342.6723 0004208  10.6835 349.4491 15.22899805 93593

JSON: /api/v1/satellites/62665 · /tle

For live sub-satellite position, see the globe view (requires WebGL).

§ Visibility from observer

Set your observer location to see the next 7 days of passes ≥ 10°. The values pass through the URL so the page stays shareable.

No JS? Fill the form by hand. The geolocation button needs JavaScript.